User: anonymous   Login
Location: eljas
(40.1958°N, 6.8661°W)
Time: 03:19:11
(UTC+01:00)
Language:

Okean O Rocket - Orbit

View from above orbital plane
View from above orbital plane
View from above satellite
View from above satellite

Ground track
Ground track

The orbit data is extracted from the following two-line orbital elements,

1 25861U 99039B   14332.51408429  .00000653  00000-0  97878-4 0  8028
2 25861 097.9732 289.4433 0015555 200.1369 275.3868 14.77891321828130
Epoch (UTC): 28 November 2014 12:20:16
Eccentricity: 0.0015555
inclination: 97.9732°
perigee height: 625 km
apogee height: 647 km
right ascension of ascending node: 289.4433°
argument of perigee: 200.1369°
revolutions per day: 14.77891321
mean anomaly at epoch: 275.3868°
orbit number at epoch: 82813

The dashed part of the orbit path shows where the satellite is in the earth's shadow,  

DLR